EHI
0 0 0 0 0 0 0 0 0 0 0 0 0 0 0 0 0 0 0 0 1 3 3 3 3 2 1 3 5 4 3 2 1 0 1 3 3 3 2 1 1 2 4 4
0 0 0 0 0 0 0 0 0 0 0 0 0 0 0 0 0 0 0 1 2 3 3 3 2 2 2 3 5 5 3 1 1 1 2 3 3 3 3 3 3 4 4 3
0 0 0 0 0 0 0 0 0 0 0 0 0 0 0 0 0 0 1 2 3 3 2 2 1 1 1 3 4 5 4 3 1 2 3 3 3 3 3 4 4 4 3 2
0 0 0 0 0 0 0 0 0 0 0 0 0 0 0 0 0 0 1 2 2 2 2 2 2 1 1 3 4 5 6 4 2 3 4 3 3 3 4 4 4 4 3 3
0 0 0 0 0 0 0 0 0 0 0 0 0 0 0 0 0 0 0 1 1 1 1 2 3 2 3 5 6 6 6 4 3 3 4 4 3 4 4 4 4 5 4 3
0 0 0 0 0 0 0 0 0 0 0 0 0 0 0 0 0 0 0 1 1 1 2 3 4 6 8 9 9 9 7 5 4 4 4 3 4 5 5 4 4 5 4 2
0 0 0 0 0 0 0 0 0 0 0 0 0 0 0 0 0 0 1 2 3 2 3 5 6 8 11 12 12 11 9 7 6 4 3 3 5 6 6 4 4 5 4 1
0 0 0 0 0 0 0 0 0 0 0 0 0 0 0 0 0 1 2 3 3 3 4 5 6 9 11 12 13 12 10 7 7 6 4 4 6 6 5 4 4 6 4 2
0 0 0 0 0 0 0 0 0 0 0 0 0 0 0 0 1 2 3 4 4 3 4 6 7 8 9 10 12 13 11 10 10 9 6 4 5 5 4 5 6 7 6 4
0 0 0 0 0 0 0 0 0 0 0 0 0 0 0 1 2 3 4 4 4 5 6 7 8 8 8 9 11 12 12 12 12 10 6 4 4 4 4 6 7 7 6 6
0 0 0 0 0 0 0 0 0 0 0 0 0 0 1 2 3 3 3 4 4 5 6 7 8 8 6 7 9 10 11 13 12 9 6 3 3 3 5 6 7 7 6 5
0 0 0 0 0 0 0 0 0 0 0 0 0 1 2 3 3 3 3 2 3 4 5 6 8 9 7 7 8 8 10 12 11 7 5 3 3 4 5 7 7 6 4 3
0 0 0 0 0 0 0 0 0 0 0 0 0 1 3 3 3 2 1 1 1 3 5 7 11 12 10 9 8 8 9 10 8 6 4 3 2 3 4 6 7 5 3 2
0 0 0 0 0 0 0 0 0 0 0 0 0 1 3 3 2 3 2 1 1 2 6 11 14 14 12 9 8 8 8 7 5 4 4 3 1 1 2 4 5 4 3 3
0 0 0 0 0 0 0 0 0 0 0 0 1 2 3 3 3 5 6 4 4 5 9 14 17 17 14 11 10 9 7 4 3 3 3 1 0 0 1 3 3 3 4 4
0 0 0 0 0 0 0 0 0 0 0 0 1 2 3 4 6 8 10 9 8 9 14 18 20 19 16 13 12 10 6 4 3 3 1 0 0 1 2 3 3 3 3 4
0 0 0 0 0 0 0 0 0 0 1 1 1 2 3 5 8 9 11 11 10 12 16 18 18 18 15 13 10 8 5 3 2 2 1 0 0 1 2 4 5 4 4 4
0 0 0 0 0 0 0 0 0 1 2 2 2 3 5 8 9 9 10 9 9 11 14 15 15 15 13 11 9 7 3 2 1 1 0 1 2 2 4 5 6 6 5 4
0 0 0 0 0 0 0 0 0 1 2 3 4 6 9 10 10 8 8 8 8 9 10 12 13 13 12 11 10 8 4 2 2 1 0 1 3 5 6 7 7 7 6 6
0 0 0 0 0 0 1 1 1 1 2 4 6 9 10 9 7 6 8 10 11 10 11 13 14 12 12 12 11 9 6 3 2 1 1 2 5 8 10 11 10 10 9 7
0 0 0 0 0 0 1 2 2 1 1 4 7 10 10 7 5 8 12 14 14 13 14 15 15 14 13 14 13 10 8 5 3 2 3 5 6 9 12 14 15 14 12 10
0 0 0 0 0 0 1 2 2 1 2 5 7 9 8 8 10 14 17 16 15 15 15 15 16 16 16 16 15 13 12 10 8 7 8 9 8 8 10 13 16 16 13 12
0 0 0 0 0 0 0 1 1 1 3 6 7 7 9 13 16 17 17 15 14 15 16 16 16 16 15 16 16 14 14 14 12 9 9 9 8 7 8 11 14 14 13 14
0 0 0 0 0 0 0 0 0 2 5 6 7 8 11 16 17 16 14 13 13 14 14 14 14 14 13 14 14 14 14 14 12 7 5 6 7 7 8 10 12 12 13 14
0 0 0 0 0 0 0 0 1 3 4 5 7 9 12 13 14 14 14 13 13 13 12 11 12 13 13 12 13 13 13 14 12 7 5 6 6 5 5 7 9 10 11 11
1 1 1 0 0 0 0 0 1 2 3 5 7 9 10 10 10 13 15 14 13 12 10 9 12 14 13 12 12 13 15 16 13 9 7 6 6 5 4 4 5 7 8 8
Wind_Speed
3 5 3 6 6 5 5 4 2 2 2 3 3 3 4 6 7 7 6 6 7 7 5 4 4 5 5 4 4 4 4 4 4 2 2 2 1 1 1 1 1 2 2 2
4 1 5 4 4 3 4 3 1 0 1 2 1 2 4 7 9 9 9 9 8 6 4 4 5 5 5 5 5 5 4 4 4 3 2 2 2 1 1 1 1 1 2 2
4 5 3 4 4 3 2 5 4 3 2 3 2 3 2 3 4 5 6 7 7 9 8 6 6 5 5 5 6 6 5 5 4 4 3 3 2 2 1 1 1 1 1 1
3 3 3 4 4 5 3 4 5 5 4 1 1 2 6 3 4 6 7 7 8 8 7 7 7 6 7 7 5 5 5 5 4 5 4 4 3 2 1 1 1 1 1 1
4 3 3 4 5 6 4 3 5 4 4 2 2 1 7 1 5 8 9 9 9 9 9 9 9 8 7 6 6 5 5 4 4 5 5 4 2 2 1 1 1 1 1 1
4 2 4 5 2 5 6 7 7 6 5 1 2 2 7 5 8 7 8 9 9 9 9 8 7 6 6 6 6 5 5 4 4 5 5 4 4 4 3 2 1 1 0 1
3 3 1 3 4 3 5 7 4 4 4 4 2 2 9 7 6 8 9 9 9 9 8 8 8 8 8 8 7 7 6 5 5 5 5 4 5 5 5 3 3 2 1 1
2 5 4 3 6 7 5 9 8 5 4 4 1 5 9 5 4 4 5 5 6 8 8 9 9 9 9 9 8 7 7 6 5 5 5 4 4 4 3 3 3 3 2 2
6 6 4 2 3 9 6 3 6 8 3 0 4 6 9 3 2 1 2 4 6 7 8 8 8 8 9 9 9 9 8 6 5 5 4 4 4 4 3 3 3 2 2 2
7 3 3 2 4 4 6 9 6 7 6 2 4 4 5 5 4 3 3 5 5 6 6 7 7 8 8 8 8 8 7 7 6 5 5 5 4 4 4 3 3 3 2 2
4 4 2 2 3 5 4 4 6 5 5 7 3 8 7 7 6 6 6 6 6 7 7 7 6 6 6 6 7 8 7 6 6 6 5 4 4 4 3 3 3 3 2 2
2 5 2 4 3 2 4 6 8 6 4 4 4 8 4 4 4 5 5 5 5 5 6 6 6 6 6 7 7 8 7 7 7 6 5 4 4 4 4 4 3 3 2 2
4 6 3 4 4 2 2 3 4 6 6 5 5 8 3 0 1 3 4 4 4 4 4 5 5 6 7 7 7 7 7 7 6 6 5 5 4 5 5 4 3 3 3 3
5 5 6 9 8 4 2 2 4 6 5 5 7 7 5 3 4 4 4 5 5 5 5 5 5 6 6 6 6 6 6 6 6 6 6 5 5 5 4 3 3 3 3 3
5 4 2 3 3 3 3 4 5 5 8 9 8 7 9 7 7 5 4 5 5 5 5 6 6 5 6 6 6 6 6 6 6 6 6 5 4 4 4 4 3 3 3 4
4 4 2 0 1 2 2 4 6 5 4 5 4 7 6 3 2 3 4 6 6 6 6 7 7 6 7 7 7 7 7 7 7 7 6 5 4 4 4 4 4 3 3 3
2 4 3 2 2 1 4 6 6 4 4 6 7 8 2 2 5 7 7 7 7 7 6 7 8 7 7 7 7 8 7 7 7 6 5 5 5 4 3 3 3 3 3 2
5 4 3 2 2 5 8 3 4 5 3 3 4 4 4 6 5 3 4 6 6 6 6 6 6 6 6 6 6 6 6 6 7 6 6 5 5 5 4 4 3 3 2 2
6 8 5 4 3 5 6 1 3 4 3 3 3 2 1 1 3 1 1 3 4 5 5 5 5 5 5 6 6 7 6 6 6 6 6 6 6 6 5 5 4 3 3 2
4 5 6 4 4 7 7 3 2 3 3 2 2 3 2 4 2 4 1 1 1 2 3 4 5 5 5 5 6 7 6 6 6 6 6 5 6 6 6 5 4 3 3 3
3 3 4 4 4 7 6 5 1 5 7 3 2 4 5 5 5 3 3 2 2 2 3 4 5 5 5 5 6 6 6 6 5 4 4 5 5 5 5 4 3 3 3 3
5 5 4 5 4 8 3 1 3 5 3 1 2 3 4 2 1 3 4 4 3 3 4 5 5 4 4 5 6 6 5 4 4 4 4 4 4 4 4 4 4 3 4 3
3 5 5 7 7 4 2 2 3 2 2 2 2 2 2 2 2 3 3 3 3 4 3 4 5 4 3 4 5 6 4 4 5 5 4 4 4 3 4 4 4 3 3 3
2 1 2 2 4 3 3 2 2 1 1 1 1 1 2 2 2 3 3 3 3 3 3 3 5 5 3 3 4 4 4 5 6 5 4 4 4 3 3 3 3 3 3 3
4 1 1 2 4 4 4 3 3 3 3 2 2 2 2 3 2 3 3 3 3 3 3 3 4 5 4 4 4 4 4 6 6 5 4 4 3 3 3 2 2 3 3 4
4 5 5 6 6 4 5 4 3 2 2 1 2 2 2 2 2 2 2 2 2 3 3 3 3 3 3 3 3 3 4 5 6 5 4 3 3 3 2 2 1 1 1 2
Wind_Direction
71 83 165 205 196 181 158 159 191 222 193 156 199 215 199 190 188 192 197 199 203 210 209 182 174 166 154 155 153 152 144 140 129 117 111 102 86 68 79 86 102 120 116 117
51 246 222 177 162 132 139 149 192 24 130 145 194 263 222 200 202 199 199 202 203 200 191 186 172 165 167 169 168 162 161 157 156 144 131 128 120 99 85 72 77 101 126 136
180 229 167 135 142 143 179 183 186 164 82 55 75 330 253 229 219 206 204 199 196 194 192 191 180 178 173 178 179 178 175 168 162 146 114 93 73 57 59 74 71 60 97 111
219 226 157 149 178 157 228 211 158 136 116 348 100 280 283 238 236 220 213 205 204 199 190 186 181 183 185 188 180 174 171 168 162 151 147 148 152 164 188 160 131 71 85 111
231 186 160 189 203 165 191 122 114 110 112 69 19 162 287 263 240 237 222 213 206 196 190 191 189 186 187 181 175 172 165 167 163 162 164 159 159 164 130 109 112 75 38 51
232 221 191 197 159 140 123 76 59 53 68 32 247 174 278 231 223 230 222 214 205 195 192 193 187 171 173 170 169 166 166 174 169 168 166 167 170 164 151 154 155 129 56 24
314 304 246 143 101 72 98 94 49 15 15 258 236 200 255 250 228 217 218 211 201 192 187 185 181 179 176 173 175 173 172 179 175 172 175 177 176 173 176 177 175 169 177 204
179 273 243 181 160 163 167 138 152 177 209 269 276 236 258 272 260 231 212 197 189 188 187 188 187 186 184 180 177 173 178 184 180 179 182 175 171 173 181 183 175 181 195 207
174 242 279 218 160 137 139 160 156 128 138 152 275 285 300 301 310 277 178 173 187 190 187 188 186 185 183 179 179 179 179 181 183 183 176 173 177 178 182 181 176 182 194 197
159 208 279 282 81 45 137 142 106 118 142 214 280 270 255 263 248 234 201 195 196 188 182 182 184 186 183 180 177 175 178 181 178 175 180 184 187 187 179 170 181 181 187 186
136 156 296 37 156 174 111 100 106 114 146 155 218 263 231 223 214 204 210 202 191 186 183 182 182 182 177 169 169 174 175 173 176 179 180 181 183 180 175 176 187 183 180 184
127 126 209 257 269 188 149 156 145 147 192 170 173 260 277 226 213 197 204 200 187 182 179 175 170 165 169 173 176 178 178 181 184 177 170 179 171 165 175 186 192 179 181 186
126 113 96 345 340 12 99 140 142 126 121 152 170 256 308 3 202 203 195 189 172 165 165 159 158 165 173 177 180 179 180 183 175 164 168 177 175 174 183 190 183 173 177 182
117 118 163 191 209 193 186 165 151 130 146 187 215 238 280 266 235 220 197 184 171 166 163 162 168 172 174 176 177 173 175 169 166 164 170 184 190 186 185 181 177 176 176 179
94 130 185 219 218 184 193 197 175 179 182 182 217 220 240 232 220 215 189 171 162 163 170 176 176 174 169 167 168 168 168 163 161 162 175 191 189 173 169 173 180 183 186 188
65 127 123 309 244 200 215 225 198 199 187 202 211 243 246 230 176 186 189 176 175 179 181 179 177 172 171 171 170 166 169 166 158 165 179 180 170 168 173 174 176 178 185 182
73 114 108 228 291 75 246 223 196 194 191 178 204 231 224 206 204 200 196 187 187 187 185 184 183 181 180 179 173 172 174 164 162 169 172 169 168 171 179 171 161 173 181 174
144 113 121 143 100 207 238 238 184 174 202 207 227 236 212 214 216 211 190 184 189 188 186 189 185 184 181 171 165 162 158 160 165 170 174 174 171 173 169 162 170 175 167 169
163 140 129 132 174 262 290 251 159 173 239 223 211 244 255 117 77 333 210 181 194 191 184 181 176 171 165 163 162 154 156 161 167 177 182 181 176 174 171 177 185 179 167 177
91 110 122 136 160 219 240 272 266 136 251 254 181 189 160 113 138 251 220 138 134 148 150 150 143 138 148 159 154 154 161 164 179 188 185 175 172 173 178 184 182 172 170 184
85 81 136 160 194 250 260 294 82 159 231 258 199 188 177 190 204 214 154 130 130 122 132 135 134 136 148 151 150 155 161 181 191 177 162 161 167 172 172 171 169 163 166 164
165 152 173 152 181 245 297 22 163 219 268 248 211 200 198 221 127 128 137 137 132 112 122 135 135 136 137 142 145 151 167 174 154 150 152 158 161 166 163 160 162 160 161 160
189 186 183 186 207 241 283 254 272 244 253 260 231 219 182 163 152 136 134 134 133 123 120 130 132 130 128 136 143 149 163 146 140 139 145 147 143 148 152 159 162 156 160 170
268 172 151 253 271 285 294 302 320 314 276 282 220 168 146 151 157 145 135 134 128 120 123 126 133 134 139 144 141 155 153 146 140 141 142 140 142 145 144 147 154 160 174 185
231 188 143 259 284 312 316 320 322 343 6 31 36 69 107 119 134 148 146 145 137 124 121 135 149 151 156 156 151 151 149 144 141 138 135 138 143 148 146 149 165 179 200 198
211 189 182 220 225 216 258 283 311 338 338 11 45 34 47 97 129 121 127 132 130 123 111 116 129 137 146 151 146 144 148 144 141 142 145 147 145 146 148 143 97 49 181 200